CFG25SA EDDH-LIMC

Flight info

Callsign CFG25SA
Flight time N/A
Altitude 37000
Route IDEKO7G IDEKO N850 XAROL/N0445F380 DCT BOMBI DCT GIGET DCT ABUKA DCT KRH DCT NATOR/N0446F370 DCT DITON DCT BASGO/N0421F290 Z424 AKASU/N0355F190 Z424 RIXUV
Aircraft A320/M-SDE3FGHIRWY/LB1

Departure

Time 2026-05-05 16:14
Airport Hamburg Helmut Schmidt Airport (EDDH)

Arrival

Time N/A
Airport Milan Malpensa International Airport (LIMC)
Time Latitude Longitude Altitude Speed Heading
2026-05-05 15:40 53.63006 10.00357 47 ft 0 kts 123°
2026-05-05 16:01 53.63006 10.00356 48 ft 2 kts 123°
2026-05-05 16:02 53.63014 10.00334 46 ft 2 kts 123°
2026-05-05 16:02 53.63024 10.00311 47 ft 2 kts 123°
2026-05-05 16:02 53.63032 10.00290 45 ft 2 kts 123°
2026-05-05 16:02 53.63041 10.00267 48 ft 2 kts 123°
2026-05-05 16:03 53.63050 10.00245 45 ft 2 kts 123°
2026-05-05 16:03 53.63058 10.00222 46 ft 2 kts 129°
2026-05-05 16:03 53.63071 10.00205 45 ft 2 kts 160°
2026-05-05 16:03 53.63086 10.00197 47 ft 2 kts 166°
2026-05-05 16:04 53.63093 10.00194 46 ft 0 kts 174°
2026-05-05 16:05 53.63082 10.00191 48 ft 5 kts 193°
2026-05-05 16:05 53.63031 10.00143 48 ft 11 kts 213°
2026-05-05 16:06 53.62988 10.00096 48 ft 6 kts 213°
2026-05-05 16:06 53.62956 10.00061 48 ft 5 kts 213°
2026-05-05 16:06 53.62933 10.00029 48 ft 4 kts 227°
2026-05-05 16:06 53.62920 9.99994 48 ft 3 kts 243°
2026-05-05 16:07 53.62912 9.99968 48 ft 2 kts 244°
2026-05-05 16:07 53.62907 9.99949 45 ft 2 kts 244°
2026-05-05 16:07 53.62899 9.99923 48 ft 3 kts 244°
2026-05-05 16:07 53.62895 9.99909 48 ft 1 kts 244°
2026-05-05 16:08 53.62894 9.99906 48 ft 0 kts 244°
2026-05-05 16:10 53.62894 9.99904 47 ft 1 kts 244°
2026-05-05 16:10 53.62888 9.99883 46 ft 5 kts 244°
2026-05-05 16:10 53.62870 9.99823 45 ft 7 kts 244°
2026-05-05 16:10 53.62872 9.99748 43 ft 6 kts 303°
2026-05-05 16:11 53.62900 9.99717 45 ft 0 kts 335°
2026-05-05 16:13 53.63009 9.99626 45 ft 51 kts 334°
2026-05-05 16:13 53.63541 9.99169 47 ft 118 kts 332°
2026-05-05 16:13 53.64418 9.98408 105 ft 162 kts 335°
2026-05-05 16:14 53.66400 9.96692 1465 ft 159 kts 337°
2026-05-05 16:14 53.68505 9.94909 2652 ft 192 kts 336°
2026-05-05 16:15 53.71005 9.92422 3956 ft 221 kts 310°
2026-05-05 16:15 53.71259 9.87076 5098 ft 261 kts 255°
2026-05-05 16:16 53.70035 9.81158 6869 ft 269 kts 250°
2026-05-05 16:16 53.68727 9.75222 8748 ft 272 kts 250°
2026-05-05 16:17 53.67457 9.69092 10307 ft 287 kts 251°
2026-05-05 16:17 53.66786 9.65763 10585 ft 310 kts 250°
2026-05-05 16:18 53.64236 9.59767 11858 ft 329 kts 219°
2026-05-05 16:18 53.62239 9.57812 12622 ft 336 kts 203°
2026-05-05 16:18 53.57557 9.56406 14052 ft 348 kts 188°
2026-05-05 16:19 53.55145 9.55941 14716 ft 351 kts 188°
2026-05-05 16:19 53.52699 9.55464 15385 ft 355 kts 188°
2026-05-05 16:19 53.47759 9.54494 16714 ft 361 kts 189°
2026-05-05 16:20 53.42724 9.53502 18021 ft 368 kts 189°
2026-05-05 16:20 53.37601 9.52489 19207 ft 373 kts 189°
2026-05-05 16:21 53.32407 9.51472 20402 ft 377 kts 189°
2026-05-05 16:22 53.24514 9.49923 22212 ft 384 kts 189°
2026-05-05 16:22 53.19169 9.48881 23366 ft 389 kts 189°
2026-05-05 16:23 53.13791 9.47843 24315 ft 393 kts 189°
2026-05-05 16:23 53.11077 9.47318 24767 ft 394 kts 190°
2026-05-05 16:23 53.05606 9.46256 25644 ft 397 kts 190°
2026-05-05 16:24 53.02849 9.45722 26069 ft 399 kts 190°
2026-05-05 16:24 53.00085 9.45185 26483 ft 401 kts 190°
2026-05-05 16:24 52.94532 9.44049 27295 ft 403 kts 191°
2026-05-05 16:25 52.91736 9.43447 27696 ft 405 kts 191°
2026-05-05 16:25 52.86128 9.42220 28444 ft 409 kts 191°
2026-05-05 16:25 52.83298 9.41603 28803 ft 411 kts 191°
2026-05-05 16:26 52.77599 9.40383 29509 ft 415 kts 191°
2026-05-05 16:26 52.71849 9.39178 30141 ft 418 kts 191°
2026-05-05 16:27 52.68959 9.38572 30424 ft 419 kts 191°
2026-05-05 16:27 52.66056 9.37959 30705 ft 420 kts 191°
2026-05-05 16:27 52.63162 9.37345 30958 ft 421 kts 191°
2026-05-05 16:27 52.60249 9.36696 31248 ft 420 kts 192°
2026-05-05 16:28 52.57400 9.35980 31623 ft 417 kts 193°
2026-05-05 16:28 52.54543 9.35210 32052 ft 414 kts 194°
2026-05-05 16:28 52.51709 9.34427 32477 ft 411 kts 194°
2026-05-05 16:28 52.48888 9.33654 32883 ft 409 kts 194°
2026-05-05 16:29 52.46083 9.32898 33269 ft 406 kts 194°
2026-05-05 16:29 52.43304 9.32159 33675 ft 404 kts 194°
2026-05-05 16:29 52.40535 9.31433 34036 ft 402 kts 193°
2026-05-05 16:29 52.37775 9.30719 34299 ft 401 kts 193°
2026-05-05 16:30 52.35014 9.30005 34535 ft 402 kts 193°
2026-05-05 16:30 52.32249 9.29284 34758 ft 403 kts 193°
2026-05-05 16:30 52.29480 9.28560 34976 ft 403 kts 193°
2026-05-05 16:30 52.26707 9.27835 35196 ft 404 kts 193°
2026-05-05 16:31 52.23930 9.27107 35402 ft 405 kts 193°
2026-05-05 16:31 52.21139 9.26435 35601 ft 406 kts 191°
2026-05-05 16:31 52.18328 9.25880 35805 ft 408 kts 190°
2026-05-05 16:31 52.15498 9.25394 36001 ft 408 kts 189°
2026-05-05 16:32 52.12677 9.24936 36234 ft 408 kts 189°
2026-05-05 16:32 52.09843 9.24476 36444 ft 408 kts 189°
2026-05-05 16:32 52.07019 9.24002 36648 ft 408 kts 189°
2026-05-05 16:32 52.04228 9.23495 36819 ft 408 kts 190°
2026-05-05 16:33 51.98635 9.22117 36851 ft 406 kts 193°
2026-05-05 16:33 51.93079 9.20540 36851 ft 405 kts 193°
2026-05-05 16:34 51.87513 9.19026 36846 ft 406 kts 191°
2026-05-05 16:34 51.81918 9.17757 36841 ft 406 kts 190°
2026-05-05 16:35 51.76304 9.16614 36838 ft 406 kts 190°
2026-05-05 16:35 51.70700 9.15444 36831 ft 406 kts 190°
2026-05-05 16:36 51.65095 9.14240 36820 ft 405 kts 190°
2026-05-05 16:36 51.59511 9.13028 36819 ft 405 kts 190°
2026-05-05 16:37 51.53916 9.11816 36818 ft 406 kts 189°
2026-05-05 16:37 51.48363 9.10514 36822 ft 405 kts 192°
2026-05-05 16:38 51.42845 9.08662 36826 ft 405 kts 194°
2026-05-05 16:38 51.37352 9.06637 36820 ft 404 kts 194°
2026-05-05 16:39 51.31877 9.04716 36807 ft 402 kts 193°
2026-05-05 16:39 51.26306 9.03295 36809 ft 404 kts 188°
2026-05-05 16:40 51.20743 9.02317 36802 ft 405 kts 187°
2026-05-05 16:40 51.15143 9.01333 36798 ft 404 kts 188°
2026-05-05 16:41 51.09566 9.00252 36794 ft 403 kts 188°
2026-05-05 16:41 51.03990 8.99128 36797 ft 404 kts 188°
2026-05-05 16:42 50.98402 8.98003 36810 ft 405 kts 188°
2026-05-05 16:42 50.92793 8.96896 36794 ft 406 kts 188°
2026-05-05 16:43 50.88124 8.95979 36792 ft 406 kts 188°
2026-05-05 16:43 50.82505 8.94871 36792 ft 407 kts 188°
2026-05-05 16:44 50.76886 8.93773 36796 ft 407 kts 188°
2026-05-05 16:44 50.71260 8.92677 36797 ft 407 kts 188°
2026-05-05 16:45 50.65627 8.91577 36800 ft 408 kts 188°
2026-05-05 16:45 50.59987 8.90481 36803 ft 408 kts 188°
2026-05-05 16:46 50.54350 8.89377 36808 ft 408 kts 188°
2026-05-05 16:46 50.48701 8.88277 36807 ft 409 kts 187°
2026-05-05 16:47 50.43044 8.87198 36811 ft 409 kts 187°
2026-05-05 16:47 50.37389 8.86107 36815 ft 410 kts 187°
2026-05-05 16:48 50.31734 8.85008 36828 ft 410 kts 187°
2026-05-05 16:48 50.26105 8.83936 36828 ft 410 kts 187°
2026-05-05 16:49 50.20433 8.82855 36832 ft 411 kts 187°
2026-05-05 16:49 50.14764 8.81773 36837 ft 411 kts 187°
2026-05-05 16:50 50.09074 8.80687 36840 ft 411 kts 187°
2026-05-05 16:50 50.03400 8.79592 36835 ft 411 kts 187°
2026-05-05 16:51 49.97718 8.78412 36837 ft 412 kts 188°
2026-05-05 16:51 49.92040 8.77206 36832 ft 412 kts 188°
2026-05-05 16:52 49.86361 8.76019 36832 ft 412 kts 187°
2026-05-05 16:52 49.80672 8.74841 36828 ft 412 kts 187°
2026-05-05 16:53 49.74978 8.73670 36825 ft 413 kts 187°
2026-05-05 16:53 49.69284 8.72503 36825 ft 413 kts 187°
2026-05-05 16:54 49.63613 8.71351 36828 ft 414 kts 187°
2026-05-05 16:54 49.57880 8.70198 36828 ft 414 kts 187°
2026-05-05 16:55 49.52147 8.69041 36827 ft 414 kts 187°
2026-05-05 16:55 49.46431 8.67895 36828 ft 415 kts 187°
2026-05-05 16:56 49.40746 8.66748 36831 ft 415 kts 187°
2026-05-05 16:56 49.35023 8.65592 36829 ft 415 kts 187°
2026-05-05 16:57 49.33093 8.65202 36828 ft 415 kts 187°
2026-05-05 16:58 49.11684 8.60895 36824 ft 415 kts 188°
2026-05-05 16:59 49.05964 8.59749 36824 ft 415 kts 188°
2026-05-05 16:59 49.00230 8.58614 36823 ft 415 kts 187°
2026-05-05 17:00 48.94540 8.57126 36829 ft 415 kts 192°
2026-05-05 17:00 48.88910 8.55184 36829 ft 415 kts 193°
2026-05-05 17:01 48.83273 8.53235 36829 ft 415 kts 192°
2026-05-05 17:01 48.77666 8.51406 36828 ft 415 kts 192°
2026-05-05 17:02 48.72010 8.49610 36826 ft 415 kts 192°
2026-05-05 17:02 48.66340 8.47802 36826 ft 416 kts 192°
2026-05-05 17:03 48.60682 8.45988 36828 ft 416 kts 192°
2026-05-05 17:03 48.55020 8.44167 36834 ft 416 kts 192°
2026-05-05 17:04 48.49353 8.42353 36838 ft 416 kts 192°
2026-05-05 17:04 48.43689 8.40553 36837 ft 416 kts 192°
2026-05-05 17:05 48.38021 8.38762 36839 ft 416 kts 192°
2026-05-05 17:05 48.32357 8.36972 36839 ft 416 kts 192°
2026-05-05 17:06 48.26692 8.35177 36842 ft 416 kts 192°
2026-05-05 17:06 48.21980 8.33687 36846 ft 416 kts 192°
2026-05-05 17:07 48.16289 8.32186 36845 ft 416 kts 184°
2026-05-05 17:07 48.10479 8.32233 36850 ft 417 kts 181°
2026-05-05 17:08 48.04675 8.32317 36856 ft 417 kts 181°
2026-05-05 17:08 47.98873 8.32389 36861 ft 417 kts 181°
2026-05-05 17:09 47.93058 8.32471 36862 ft 417 kts 181°
2026-05-05 17:09 47.87252 8.32551 36865 ft 417 kts 181°
2026-05-05 17:10 47.81445 8.32627 36869 ft 417 kts 181°
2026-05-05 17:10 47.75638 8.32712 36868 ft 417 kts 181°
2026-05-05 17:11 47.69819 8.32799 36875 ft 417 kts 181°
2026-05-05 17:11 47.64002 8.32873 36880 ft 417 kts 181°
2026-05-05 17:12 47.58230 8.32944 36882 ft 417 kts 181°
2026-05-05 17:12 47.52428 8.33021 36881 ft 417 kts 181°
2026-05-05 17:13 47.46625 8.33112 36877 ft 417 kts 182°
2026-05-05 17:13 47.40826 8.33194 36875 ft 417 kts 182°
2026-05-05 17:14 47.35025 8.33275 36868 ft 416 kts 182°
2026-05-05 17:14 47.29232 8.33387 36881 ft 417 kts 180°
2026-05-05 17:15 47.23436 8.34033 36891 ft 419 kts 178°
2026-05-05 17:15 47.17642 8.34982 36900 ft 419 kts 177°
2026-05-05 17:16 47.11844 8.35887 36905 ft 419 kts 178°
2026-05-05 17:16 47.06044 8.36683 36668 ft 418 kts 179°
2026-05-05 17:17 47.03150 8.37063 36436 ft 417 kts 179°
2026-05-05 17:17 47.00259 8.37442 36184 ft 416 kts 179°
2026-05-05 17:17 46.97368 8.37828 35933 ft 416 kts 179°
2026-05-05 17:17 46.94485 8.38218 35684 ft 416 kts 179°
2026-05-05 17:18 46.91638 8.38603 35442 ft 417 kts 179°
2026-05-05 17:18 46.88741 8.38998 35192 ft 416 kts 179°
2026-05-05 17:18 46.85873 8.39388 34941 ft 415 kts 180°
2026-05-05 17:18 46.82994 8.39778 34702 ft 413 kts 180°
2026-05-05 17:19 46.80130 8.40167 34407 ft 412 kts 180°
2026-05-05 17:19 46.77287 8.40553 33858 ft 409 kts 180°
2026-05-05 17:19 46.74474 8.40936 33320 ft 404 kts 180°
2026-05-05 17:19 46.71693 8.41314 32803 ft 399 kts 180°
2026-05-05 17:20 46.68945 8.41686 32284 ft 394 kts 180°
2026-05-05 17:20 46.66225 8.42051 31780 ft 391 kts 180°
2026-05-05 17:20 46.63532 8.42412 31280 ft 386 kts 180°
2026-05-05 17:20 46.60871 8.42771 30785 ft 382 kts 180°
2026-05-05 17:21 46.58240 8.43126 30308 ft 378 kts 180°
2026-05-05 17:21 46.55631 8.43472 29797 ft 375 kts 180°
2026-05-05 17:21 46.53050 8.43814 29312 ft 370 kts 180°
2026-05-05 17:22 46.47979 8.44483 28409 ft 362 kts 180°
2026-05-05 17:22 46.45490 8.44812 27962 ft 357 kts 180°
2026-05-05 17:22 46.43028 8.45139 27536 ft 354 kts 180°
2026-05-05 17:22 46.40581 8.45467 27118 ft 351 kts 180°
2026-05-05 17:23 46.38166 8.45791 26690 ft 348 kts 181°
2026-05-05 17:23 46.35762 8.46114 26295 ft 344 kts 181°
2026-05-05 17:23 46.33386 8.46429 25902 ft 341 kts 181°
2026-05-05 17:23 46.31062 8.46735 25511 ft 337 kts 181°
2026-05-05 17:24 46.28736 8.47042 25117 ft 333 kts 181°
2026-05-05 17:24 46.26447 8.47346 24704 ft 330 kts 180°
2026-05-05 17:24 46.24170 8.47666 24273 ft 327 kts 180°
2026-05-05 17:24 46.21917 8.47992 23870 ft 324 kts 180°
2026-05-05 17:25 46.19673 8.48314 23412 ft 323 kts 180°
2026-05-05 17:25 46.18167 8.48530 23098 ft 321 kts 180°
2026-05-05 17:25 46.15226 8.48952 22531 ft 319 kts 180°
2026-05-05 17:25 46.13020 8.49269 22102 ft 318 kts 180°
2026-05-05 17:26 46.10824 8.49767 21667 ft 320 kts 171°
2026-05-05 17:26 46.08704 8.50791 21246 ft 322 kts 165°
2026-05-05 17:26 46.06615 8.51927 20810 ft 320 kts 165°
2026-05-05 17:26 46.04532 8.53050 20376 ft 320 kts 165°
2026-05-05 17:27 46.02450 8.54166 19937 ft 318 kts 165°
2026-05-05 17:27 46.00383 8.55276 19522 ft 316 kts 165°
2026-05-05 17:27 45.98320 8.56381 19098 ft 316 kts 165°
2026-05-05 17:27 45.96258 8.57482 18670 ft 316 kts 165°
2026-05-05 17:28 45.94191 8.58586 18239 ft 317 kts 165°
2026-05-05 17:28 45.92124 8.59693 17882 ft 314 kts 165°
2026-05-05 17:28 45.90117 8.60899 17812 ft 316 kts 157°
2026-05-05 17:28 45.88259 8.62658 17396 ft 325 kts 147°
2026-05-05 17:29 45.86504 8.64699 17036 ft 323 kts 146°
2026-05-05 17:29 45.84770 8.66727 16663 ft 321 kts 146°
2026-05-05 17:29 45.83040 8.68746 16264 ft 319 kts 146°
2026-05-05 17:29 45.81329 8.70737 15977 ft 315 kts 146°
2026-05-05 17:30 45.79630 8.72707 15639 ft 312 kts 146°
2026-05-05 17:30 45.77942 8.74661 15298 ft 311 kts 146°
2026-05-05 17:30 45.76252 8.76511 14957 ft 307 kts 153°
2026-05-05 17:30 45.74383 8.77998 14604 ft 304 kts 156°
2026-05-05 17:31 45.72518 8.79427 14254 ft 303 kts 156°
2026-05-05 17:31 45.70682 8.80835 13907 ft 302 kts 156°
2026-05-05 17:31 45.68837 8.82254 13545 ft 301 kts 156°
2026-05-05 17:31 45.66992 8.83674 13174 ft 300 kts 156°
2026-05-05 17:32 45.65165 8.85079 12834 ft 298 kts 155°
2026-05-05 17:32 45.63343 8.86478 12474 ft 296 kts 155°
2026-05-05 17:32 45.61487 8.87697 12110 ft 291 kts 166°
2026-05-05 17:32 45.59532 8.88309 11758 ft 287 kts 173°
2026-05-05 17:33 45.57576 8.88830 11394 ft 285 kts 172°
2026-05-05 17:33 45.55622 8.89358 11026 ft 284 kts 172°
2026-05-05 17:33 45.53687 8.89887 10674 ft 282 kts 172°
2026-05-05 17:33 45.51760 8.90413 10313 ft 281 kts 172°
2026-05-05 17:34 45.49847 8.90934 9970 ft 280 kts 171°
2026-05-05 17:34 45.47941 8.91454 9606 ft 278 kts 171°
2026-05-05 17:34 45.46044 8.91970 9209 ft 277 kts 171°
2026-05-05 17:34 45.44156 8.92484 8817 ft 275 kts 171°
2026-05-05 17:35 45.42278 8.92994 8451 ft 274 kts 171°
2026-05-05 17:35 45.40431 8.93496 8099 ft 272 kts 171°
2026-05-05 17:35 45.38578 8.94000 7726 ft 270 kts 171°
2026-05-05 17:35 45.36741 8.94499 7408 ft 265 kts 171°
2026-05-05 17:36 45.34971 8.94981 7283 ft 253 kts 172°
2026-05-05 17:36 45.33283 8.95439 7156 ft 241 kts 172°
2026-05-05 17:36 45.31670 8.95876 6965 ft 233 kts 172°
2026-05-05 17:36 45.30091 8.96303 6658 ft 230 kts 172°
2026-05-05 17:37 45.28526 8.96729 6340 ft 228 kts 172°
2026-05-05 17:37 45.27475 8.96999 6079 ft 227 kts 176°
2026-05-05 17:37 45.25524 8.96326 5581 ft 221 kts 218°
2026-05-05 17:37 45.24618 8.94585 5190 ft 224 kts 249°
2026-05-05 17:38 45.24254 8.92432 4786 ft 226 kts 258°
2026-05-05 17:38 45.24010 8.90248 4570 ft 220 kts 265°
2026-05-05 17:38 45.24282 8.88148 4333 ft 217 kts 290°
2026-05-05 17:38 45.24874 8.86180 4000 ft 217 kts 294°
2026-05-05 17:39 45.25727 8.84438 3831 ft 217 kts 316°
2026-05-05 17:39 45.27003 8.83302 3692 ft 218 kts 340°
2026-05-05 17:39 45.28491 8.82814 3570 ft 220 kts 349°
2026-05-05 17:39 45.29995 8.82412 3475 ft 220 kts 349°
2026-05-05 17:40 45.31496 8.82005 3400 ft 220 kts 349°
2026-05-05 17:40 45.33001 8.81594 3325 ft 219 kts 349°
2026-05-05 17:40 45.34479 8.81191 3249 ft 219 kts 349°
2026-05-05 17:40 45.35992 8.80777 3166 ft 219 kts 349°
2026-05-05 17:41 45.37486 8.80368 3058 ft 218 kts 349°
2026-05-05 17:41 45.38957 8.79966 3030 ft 218 kts 349°
2026-05-05 17:41 45.40448 8.79557 3037 ft 218 kts 349°
2026-05-05 17:41 45.41940 8.79149 3037 ft 218 kts 349°
2026-05-05 17:42 45.43412 8.78746 3014 ft 210 kts 349°
2026-05-05 17:42 45.44808 8.78363 2999 ft 200 kts 349°
2026-05-05 17:42 45.46175 8.77988 3011 ft 198 kts 349°
2026-05-05 17:42 45.47524 8.77617 3004 ft 198 kts 349°
2026-05-05 17:43 45.48873 8.77247 3008 ft 197 kts 349°
2026-05-05 17:43 45.50190 8.76885 3000 ft 189 kts 349°
2026-05-05 17:43 45.51468 8.76534 2776 ft 185 kts 350°
2026-05-05 17:43 45.52719 8.76190 2526 ft 181 kts 350°
2026-05-05 17:44 45.53949 8.75851 2284 ft 179 kts 350°
2026-05-05 17:44 45.55162 8.75517 2038 ft 172 kts 350°
2026-05-05 17:44 45.56277 8.75209 1824 ft 154 kts 350°
2026-05-05 17:44 45.57290 8.74930 1609 ft 143 kts 350°
2026-05-05 17:45 45.58246 8.74667 1408 ft 137 kts 349°
2026-05-05 17:45 45.59176 8.74411 1220 ft 135 kts 349°
2026-05-05 17:45 45.60088 8.74159 1048 ft 133 kts 349°
2026-05-05 17:45 45.60994 8.73908 881 ft 132 kts 349°
2026-05-05 17:46 45.61899 8.73654 785 ft 136 kts 348°
2026-05-05 17:46 45.62847 8.73382 1524 ft 143 kts 349°
2026-05-05 17:46 45.63809 8.73098 2209 ft 141 kts 350°
2026-05-05 17:46 45.64813 8.73298 2513 ft 159 kts 39°
2026-05-05 17:47 45.65470 8.74641 2898 ft 171 kts 65°
2026-05-05 17:47 45.66016 8.76265 3295 ft 193 kts 66°
2026-05-05 17:47 45.66618 8.78089 3767 ft 210 kts 66°
2026-05-05 17:47 45.67268 8.80023 3990 ft 216 kts 65°
2026-05-05 17:48 45.67927 8.81942 4008 ft 215 kts 65°
2026-05-05 17:48 45.68601 8.83869 4652 ft 217 kts 65°
2026-05-05 17:48 45.69369 8.85731 5513 ft 221 kts 49°
2026-05-05 17:48 45.70627 8.86972 6327 ft 227 kts 18°
2026-05-05 17:49 45.72190 8.87120 7107 ft 229 kts 345°
2026-05-05 17:49 45.73581 8.86084 7866 ft 227 kts 313°
2026-05-05 17:49 45.74393 8.84181 8630 ft 225 kts 281°
2026-05-05 17:49 45.74561 8.81968 9480 ft 224 kts 270°
2026-05-05 17:50 45.74617 8.80460 10063 ft 225 kts 270°
2026-05-05 17:50 45.74700 8.78220 10848 ft 226 kts 270°
2026-05-05 17:50 45.74786 8.75970 11672 ft 227 kts 270°
2026-05-05 17:50 45.74874 8.73710 12485 ft 228 kts 270°
2026-05-05 17:51 45.74965 8.71446 13301 ft 229 kts 270°
2026-05-05 17:51 45.75057 8.69167 14086 ft 230 kts 269°
2026-05-05 17:51 45.75148 8.66872 14800 ft 232 kts 269°
2026-05-05 17:51 45.75239 8.64561 15546 ft 233 kts 269°
2026-05-05 17:52 45.75330 8.62228 16275 ft 235 kts 268°
2026-05-05 17:52 45.75419 8.59884 16962 ft 237 kts 268°
2026-05-05 17:52 45.75511 8.57512 17674 ft 240 kts 268°
2026-05-05 17:52 45.75604 8.55145 18359 ft 242 kts 268°
2026-05-05 17:53 45.75699 8.52706 18979 ft 244 kts 268°
2026-05-05 17:53 45.75791 8.50295 19502 ft 251 kts 267°
2026-05-05 17:53 45.75885 8.47679 19642 ft 274 kts 268°
2026-05-05 17:53 45.75984 8.44858 19770 ft 296 kts 268°
2026-05-05 17:54 45.76092 8.41808 19898 ft 317 kts 268°
2026-05-05 17:54 45.76213 8.38548 20039 ft 336 kts 269°
2026-05-05 17:54 45.76342 8.35157 20435 ft 346 kts 269°
2026-05-05 17:54 45.76477 8.31697 21025 ft 350 kts 269°
2026-05-05 17:55 45.76612 8.28204 21652 ft 353 kts 269°
2026-05-05 17:55 45.76745 8.24667 21948 ft 355 kts 268°
2026-05-05 17:55 45.76874 8.21192 21989 ft 341 kts 268°
2026-05-05 17:55 45.76999 8.17884 22000 ft 330 kts 268°
2026-05-05 17:56 45.77115 8.14615 21994 ft 330 kts 268°
2026-05-05 17:56 45.77226 8.11320 21995 ft 332 kts 268°
2026-05-05 17:56 45.77338 8.08014 21999 ft 331 kts 268°
2026-05-05 17:56 45.77450 8.04711 21996 ft 330 kts 268°
2026-05-05 17:57 45.77561 8.01439 21992 ft 330 kts 268°
2026-05-05 17:57 45.77672 7.98151 21990 ft 331 kts 268°
2026-05-05 17:57 45.77784 7.94860 21990 ft 331 kts 268°
2026-05-05 17:57 45.77894 7.91561 21991 ft 331 kts 268°
2026-05-05 17:58 45.78003 7.88259 21992 ft 331 kts 268°
2026-05-05 17:58 45.78113 7.84964 22003 ft 332 kts 268°